[[{"header":{"parameterUnit":"m.s-1","parameterCategory":1,"la1":30.2991,"la2":30.254,"lo1":-89.0895,"lo2":-89.0444,"dy":0.0017,"dx":0.0017,"nx":28,"ny":28,"refTime":"2024-12-26T09:00:00:Z","depth":0,"parameterNumber":2,"parameterNumberName":"U-component_of_WINDS"},"data":[0,0,0,0,0,0,0,0,0,0,0,0,0,0,0,0,0,0,0,0,0,0,0,0,0,0,0,0,0,0,0,0,0,0,0,0,0,0,0,0,0,0,0,0,0,0,0,0,0,0,0,0,0,0,0,0,0,0,-5.7912,-5.7913,0,-5.8042,-5.8044,-5.8045,-5.8039,-5.8037,-5.8035,-5.8033,-5.8166,-5.8171,-5.8176,0,0,0,0,0,0,0,0,0,0,0,0,0,-5.7657,-5.7661,-5.7911,-5.7913,-5.7915,-5.8042,-5.8044,-5.8045,-5.8039,-5.8037,-5.8034,-5.8032,-5.8164,-5.817,-5.8176,0,0,0,0,0,0,0,0,0,0,0,0,0,-5.7775,-5.7663,-5.7911,-5.7927,-5.793,-5.8042,-5.8044,-5.8046,-5.8039,-5.8037,-5.8034,-5.8031,-5.8162,-5.817,-5.8177,-5.8282,0,0,-5.8201,-5.8205,0,0,0,0,0,0,0,0,-5.7768,-5.7785,-5.7923,-5.7926,-5.7929,-5.8021,-5.8002,-5.8125,-5.804,-5.7998,-5.8033,-5.803,-5.812,-5.8131,-5.8162,-5.8288,-5.8294,-5.8202,-5.8207,-5.821,-5.8213,0,0,0,0,0,0,0,-5.776,-5.7779,-5.7963,-5.7925,-5.7929,-5.7927,-5.7941,-5.8026,-5.8073,-5.8001,-5.8001,-5.8017,-5.8121,-5.8154,-5.8165,-5.8296,-5.8202,-5.8209,-5.8214,-5.8217,-5.8515,-5.8518,0,0,0,0,0,0,-5.7749,-5.7772,-5.7959,-5.7967,-5.784,-5.7934,-5.795,-5.7995,-5.8072,-5.8081,-5.8019,-5.8016,-5.8142,-5.8155,-5.8169,-5.8296,-5.821,-5.8218,-5.8222,-5.8512,-5.8516,-5.8519,0,0,0,0,0,0,-5.7743,-5.7765,-5.7954,-5.787,-5.7894,-5.7942,-5.7992,-5.7999,-5.8031,-5.8085,-5.8093,-5.8044,-5.814,-5.8158,-5.8254,-5.8301,-5.8221,-5.8228,-5.8508,-5.8513,-5.8518,-5.8551,0,0,0,0,0,0,-5.7736,-5.7764,-5.7803,-5.7871,-5.7898,-5.8036,-5.7995,-5.8003,-5.8045,-5.8042,-5.8111,-5.8119,-5.8139,-5.8242,-5.8262,-5.831,-5.8235,-5.8504,-5.851,-5.8516,-5.8546,-5.8556,-5.8565,0,0,0,0,0,-5.7727,-5.7807,-5.7805,-5.7828,-5.7949,-5.8039,-5.8055,-5.8076,-5.8049,-5.8089,-5.8124,-5.8117,-5.8293,-5.8252,-5.8274,-5.8325,-5.8501,-5.8509,-5.8516,-5.8541,-5.8554,-5.8565,0,0,0,0,0,0,-5.7743,-5.7816,-5.7815,-5.792,-5.7973,-5.8038,-5.8089,-5.8089,-5.8151,-5.8145,-5.817,-5.8185,-5.8281,-5.8314,-5.8267,-5.8431,-5.8394,-5.8406,-5.8406,-5.8418,-5.8428,-5.8417,-5.8241,0,0,0,0,0,-5.7759,-5.7826,-5.7887,-5.7973,-5.8,-5.804,-5.808,-5.8093,-5.8149,-5.8171,-5.8213,-5.8268,-5.8335,-5.8379,-5.8444,-5.8552,-5.8566,-5.8598,-5.8608,-5.8615,-5.8625,-5.8684,-5.8698,-5.8543,-5.8543,-5.8543,0,0,-5.7792,-5.7841,-5.7881,-5.7978,-5.802,-5.8089,-5.8059,-5.8133,-5.8184,-5.8182,-5.8275,-5.8308,-5.8371,-5.8473,-5.852,-5.8503,-5.8671,-5.8625,-5.863,-5.8635,-5.8693,-5.8707,-5.872,-5.8548,-5.8547,-5.8546,0,0,-5.7887,-5.7931,-5.8008,-5.8052,-5.8118,-5.8145,-5.8163,-5.8229,-5.825,-5.8345,-5.8345,-5.8407,-5.8522,-5.8567,-5.8605,-5.872,-5.8716,-5.8741,-5.8791,-5.8848,-5.886,-5.8871,-5.8911,-5.8925,-5.8751,-5.8751,-5.8751,0,-5.7919,-5.8023,-5.8047,-5.8122,-5.8164,-5.8167,-5.8245,-5.8287,-5.8371,-5.84,-5.838,-5.8526,-5.8569,-5.8681,-5.8709,-5.8741,-5.8762,-5.8732,-5.8857,-5.8868,-5.8878,-5.8917,-5.8932,-5.8753,-5.8753,-5.8753,-5.8753,0,-5.8059,-5.8131,-5.8186,-5.8267,-5.8316,-5.8392,-5.8427,-5.8474,-5.8483,-5.8512,-5.8608,-5.866,-5.8736,-5.8764,-5.8774,-5.8879,-5.8866,-5.8851,-5.8814,-5.8895,-5.8931,-5.8946,-5.8757,-5.8756,-5.8755,-5.8755,0,0,-5.8164,-5.826,-5.8279,-5.8317,-5.8391,-5.8447,-5.8524,-5.8599,-5.8638,-5.8697,-5.8762,-5.8861,-5.8849,-5.8892,-5.8907,-5.8957,-5.9044,-5.8937,-5.8938,-5.8953,-5.9162,-5.9171,-5.9188,-5.9043,-5.9046,-5.9049,-5.9157,0,-5.8265,-5.8401,-5.8426,-5.8544,-5.8611,-5.8617,-5.8684,-5.8737,-5.8767,-5.8828,-5.8862,-5.8931,-5.891,-5.8936,-5.8987,-5.9023,-5.9086,-5.9016,-5.9102,-5.9105,-5.9083,-5.9207,-5.9216,-5.9315,-5.9171,-5.9174,-5.9175,0,-5.84,-5.8463,-5.8588,-5.8655,-5.8684,-5.8744,-5.8815,-5.8874,-5.8935,-5.8953,-5.9003,-5.9012,-5.9092,-5.9054,-5.9164,-5.9116,-5.9154,-5.9177,-5.9182,-5.9188,-5.9143,-5.9215,-5.9347,-5.9361,-5.9198,-5.9196,-5.9195,0,-5.8462,-5.8579,-5.8669,-5.8701,-5.8781,-5.8823,-5.8858,-5.8916,-5.896,-5.9023,-5.9052,-5.9123,-5.9162,-5.9217,-5.9246,-5.9215,-5.9354,-5.9318,-5.9371,-5.937,-5.9397,-5.9394,-5.9535,-5.9426,-5.9425,-5.9425,-5.9425,0,-5.8571,-5.8647,-5.8698,-5.8752,-5.8838,-5.8867,-5.8951,-5.8986,-5.9038,-5.91,-5.9111,-5.9168,-5.9204,-5.9268,-5.9291,-5.9379,-5.9397,-5.9413,-5.9418,-5.9411,-5.9408,-5.9433,-5.9426,-5.9429,-5.9428,-5.9427,-5.9427,0,-5.8653,-5.869,-5.8788,-5.8858,-5.8877,-5.8937,-5.8996,-5.9049,-5.9081,-5.9159,-5.9179,-5.9228,-5.9303,-5.9338,-5.9432,-5.9447,-5.9546,-5.9548,-5.9525,-5.9527,-5.9577,-5.9571,-5.9737,-5.9759,-5.9637,-5.9638,-5.9639,0,-5.8718,-5.8777,-5.8853,-5.8895,-5.8932,-5.9001,-5.9046,-5.9078,-5.9125,-5.92,-5.9244,-5.932,-5.9382,-5.9502,-5.9546,-5.9618,-5.9619,-5.9673,-5.963,-5.9621,-5.9618,-5.9613,-5.9619,-5.9679,-5.968,-5.9681,-5.9682,0,-5.883,-5.8846,-5.8911,-5.8983,-5.9037,-5.9096,-5.9153,-5.9187,-5.9228,-5.9281,-5.9358,-5.9406,-5.9502,-5.9577,-5.9652,-5.9689,-5.9692,-5.9696,-5.9712,-5.9703,-5.9687,-5.9695,-5.9544,-5.9691,-5.969,-5.969,-5.9689,-5.9689,-5.8904,-5.8957,-5.9019,-5.9091,-5.9138,-5.9192,-5.9246,-5.9285,-5.935,-5.943,-5.9446,-5.9528,-5.9589,-5.969,-5.973,-5.9795,-5.9782,-5.9805,-5.981,-5.9815,-5.9817,-5.968,-5.9809,-5.9809,-5.9808,-5.9808,-5.9808,0,-5.9014,-5.9055,-5.9122,-5.9202,-5.926,-5.926,-5.9324,-5.9372,-5.9444,-5.9501,-5.9563,-5.9652,-5.9725,-5.9776,-5.9851,-5.9893,-5.9896,-5.9911,-5.9907,-5.9915,-5.9825,-5.9803,-5.9907,-5.9907,-5.9907,-5.9907,-5.9907,-5.9907,-5.9078,-5.9167,-5.9191,-5.9304,-5.9344,-5.9425,-5.9461,-5.9511,-5.9557,-5.9656,-5.9718,-5.9751,-5.9805,-5.9885,-5.9952,-5.9965,-5.9991,-6.0006,-6.0018,-5.9932,-5.9922,-5.9911,-5.9891,-6.0012,-6.0012,-6.0103,-6.0104,-6.0105]},{"header":{"parameterUnit":"m.s-1","parameterCategory":1,"la1":30.2991,"la2":30.254,"lo1":-89.0895,"lo2":-89.0444,"dy":0.0017,"dx":0.0017,"nx":28,"ny":28,"refTime":"2024-12-26T09:00:00:Z","depth":0,"parameterNumber":3,"parameterNumberName":"V-component_of_WINDS"},"data":[0,0,0,0,0,0,0,0,0,0,0,0,0,0,0,0,0,0,0,0,0,0,0,0,0,0,0,0,0,0,0,0,0,0,0,0,0,0,0,0,0,0,0,0,0,0,0,0,0,0,0,0,0,0,0,0,0,0,2.0677,2.0676,0,2.0587,2.0586,2.0585,2.0541,2.0541,2.0541,2.0541,2.0444,2.0441,2.0439,0,0,0,0,0,0,0,0,0,0,0,0,0,2.0805,2.0803,2.0677,2.0676,2.0675,2.0588,2.0586,2.0585,2.0541,2.0541,2.0541,2.0541,2.0445,2.0442,2.0438,0,0,0,0,0,0,0,0,0,0,0,0,0,2.0736,2.0802,2.0677,2.0642,2.0638,2.0588,2.0586,2.0585,2.0541,2.0541,2.0541,2.0541,2.0446,2.0442,2.0438,2.0414,0,0,2.0426,2.0424,0,0,0,0,0,0,0,0,2.074,2.0731,2.0648,2.0645,2.064,2.0576,2.0596,2.0527,2.0541,2.0578,2.0541,2.0541,2.0487,2.048,2.0463,2.0409,2.0405,2.0426,2.0423,2.0422,2.0421,0,0,0,0,0,0,0,2.0745,2.0735,2.0641,2.0647,2.0642,2.063,2.062,2.0583,2.0533,2.0575,2.0571,2.0562,2.0485,2.0467,2.046,2.0403,2.0426,2.0422,2.042,2.0418,2.0327,2.0327,0,0,0,0,0,0,2.0756,2.0739,2.0644,2.0639,2.0691,2.0628,2.0617,2.0596,2.0534,2.0524,2.0562,2.056,2.0473,2.0465,2.0457,2.0425,2.0422,2.0418,2.0416,2.0327,2.0327,2.0327,0,0,0,0,0,0,2.0759,2.0748,2.0648,2.0688,2.0674,2.0625,2.0603,2.0594,2.0576,2.0524,2.0514,2.0553,2.0473,2.0462,2.0426,2.0421,2.0416,2.0413,2.0327,2.0327,2.0327,2.0362,0,0,0,0,0,0,2.0763,2.0749,2.074,2.0688,2.0672,2.0619,2.0602,2.0593,2.057,2.0567,2.0513,2.0504,2.0472,2.0432,2.0422,2.0416,2.041,2.0327,2.0327,2.0327,2.0361,2.0363,2.0365,0,0,0,0,0,2.0767,2.0751,2.074,2.0728,2.066,2.0619,2.061,2.0576,2.057,2.056,2.0527,2.0506,2.0424,2.0428,2.0417,2.041,2.0327,2.0327,2.0327,2.036,2.0362,2.0365,0,0,0,0,0,0,2.0801,2.0744,2.073,2.0697,2.0664,2.0612,2.0598,2.0579,2.0544,2.0543,2.05,2.0488,2.0456,2.0429,2.0435,2.0384,2.0373,2.0371,2.0402,2.0404,2.0406,2.0413,2.0406,0,0,0,0,0,2.0805,2.0778,2.0729,2.0705,2.0689,2.0647,2.0627,2.0604,2.0567,2.0552,2.0516,2.0479,2.0445,2.0423,2.0389,2.0357,2.0345,2.0347,2.0349,2.035,2.0349,2.0331,2.0332,2.0326,2.0326,2.0326,0,0,2.0812,2.0778,2.0763,2.0711,2.0682,2.0654,2.0635,2.0605,2.0584,2.0546,2.0511,2.0483,2.0439,2.0406,2.0389,2.0382,2.0348,2.035,2.0352,2.0349,2.0331,2.0332,2.0333,2.0326,2.0326,2.0326,0,0,2.0811,2.0782,2.076,2.0733,2.0691,2.0663,2.0658,2.061,2.0591,2.0555,2.0527,2.05,2.0442,2.0413,2.039,2.0382,2.0361,2.0372,2.0382,2.0366,2.0366,2.0366,2.0364,2.0364,2.037,2.037,2.037,0,2.0824,2.0783,2.075,2.0724,2.0702,2.067,2.0647,2.0621,2.0569,2.0555,2.0549,2.0478,2.0445,2.0405,2.0404,2.0386,2.0379,2.0377,2.0369,2.0369,2.0369,2.0366,2.0365,2.0372,2.0372,2.0372,2.0372,0,2.0802,2.0774,2.0761,2.0715,2.0692,2.0667,2.063,2.061,2.059,2.0563,2.0528,2.0489,2.0447,2.0436,2.0414,2.0393,2.0391,2.0378,2.0366,2.0371,2.0369,2.0367,2.0374,2.0374,2.0373,2.0373,0,0,2.0817,2.0757,2.0752,2.0733,2.0685,2.0662,2.0637,2.0599,2.0583,2.0549,2.0526,2.048,2.0468,2.0443,2.0418,2.0404,2.0402,2.0392,2.039,2.0396,2.0377,2.0388,2.0387,2.0388,2.0388,2.0387,2.0381,0,2.081,2.0765,2.0736,2.0701,2.0676,2.0647,2.0624,2.0593,2.0568,2.0541,2.0512,2.0481,2.0467,2.0452,2.0437,2.0405,2.0397,2.0405,2.0366,2.0365,2.0378,2.0386,2.0396,2.0392,2.038,2.0379,2.0379,0,2.0795,2.0765,2.0729,2.0688,2.0676,2.0657,2.0621,2.0596,2.056,2.0543,2.0517,2.0493,2.0464,2.0456,2.0416,2.0422,2.0404,2.0386,2.0385,2.038,2.0372,2.0381,2.039,2.039,2.0377,2.0377,2.0377,0,2.0811,2.0762,2.0735,2.0718,2.0669,2.0656,2.0635,2.0599,2.0579,2.0547,2.0534,2.0498,2.0479,2.0451,2.0418,2.0415,2.0382,2.0371,2.0366,2.0367,2.036,2.0361,2.0366,2.0348,2.0348,2.0348,2.0348,0,2.0806,2.0785,2.0742,2.0725,2.0701,2.0668,2.0645,2.0621,2.059,2.0568,2.0539,2.0519,2.0476,2.045,2.0424,2.0395,2.0386,2.0371,2.0364,2.0374,2.0376,2.0361,2.0361,2.0348,2.0348,2.0348,2.0348,0,2.0819,2.0789,2.0758,2.0715,2.0704,2.0689,2.0652,2.0634,2.0609,2.0581,2.0572,2.0532,2.05,2.0465,2.042,2.0403,2.0376,2.0366,2.0389,2.0385,2.0383,2.0384,2.0379,2.0378,2.0361,2.0361,2.0361,0,2.0817,2.0801,2.0759,2.0743,2.0724,2.0698,2.0679,2.0646,2.0627,2.0587,2.0574,2.0541,2.0512,2.0463,2.0428,2.0394,2.0384,2.0385,2.0378,2.0389,2.0384,2.0386,2.0385,2.0386,2.0387,2.0387,2.0387,0,2.0818,2.0806,2.078,2.075,2.0729,2.0703,2.0675,2.0664,2.0626,2.0606,2.0575,2.0553,2.051,2.0477,2.044,2.0416,2.0395,2.039,2.0387,2.0396,2.0411,2.0404,2.0395,2.039,2.0389,2.0389,2.0389,2.0389,2.0824,2.081,2.0779,2.0752,2.0729,2.0705,2.0688,2.0662,2.0636,2.06,2.0582,2.0552,2.0518,2.0466,2.0443,2.0418,2.0411,2.0407,2.0406,2.0405,2.0409,2.0416,2.0411,2.0411,2.041,2.041,2.041,0,2.0825,2.0805,2.078,2.0745,2.0725,2.071,2.068,2.0663,2.0638,2.0609,2.0583,2.0548,2.0517,2.0482,2.0448,2.0435,2.0425,2.0427,2.0428,2.0423,2.0416,2.0422,2.0436,2.0436,2.0436,2.0436,2.0436,2.0436,2.0823,2.0798,2.0782,2.0747,2.0725,2.0698,2.0682,2.066,2.0637,2.0601,2.0576,2.0555,2.0523,2.0488,2.0459,2.0449,2.0438,2.0444,2.0432,2.0425,2.0423,2.0421,2.0427,2.0442,2.0442,2.0441,2.0441,2.0441]}]]